This demonstration page uses our WeatherBlox Daily Observations layout. Learn more.

Left ArrowRight Arrow

Hourly Observations for May 13, 2017

Temp ( °F °C ) Dew Point ( °F °C ) Humidity (%) Winds ( mph kmh ) Pressure ( in mb ) Visibility ( mi km ) Precip ( " mm )
12:15 am 00:15 Clear 52 11.1 41 4.8 65 65 SSE 7 11 30.00 1016 10 16 N/A
12:35 am 00:35 Clear 51 10.5 41 4.8 68 68 S 6 9 30.00 1016 10 16 N/A
12:55 am 00:55 Clear 52 11.2 41 4.8 65 65 S 8 13 30.00 1016 10 16 N/A
1:15 am 01:15 Clear 53 11.5 41 4.8 64 64 S 6 9 30.00 1016 10 16 N/A
1:35 am 01:35 Clear 53 11.6 40 4.6 62 62 S 7 11 30.00 1016 10 16 N/A
1:55 am 01:55 Clear 53 11.5 40 4.6 63 63 S 8 13 30.00 1016 10 16 N/A
2:15 am 02:15 Clear 53 11.5 40 4.6 63 63 S 5 7 30.00 1016 10 16 N/A
2:35 am 02:35 Clear 49 9.2 40 4.2 71 71 SSE 7 11 30.00 1016 10 16 N/A
2:55 am 02:55 Clear 49 9.5 40 4.5 71 71 S 6 9 30.00 1016 10 16 N/A
3:15 am 03:15 Clear 48 9.1 40 4.2 72 72 S 6 9 29.97 1015 10 16 N/A
3:35 am 03:35 Clear 48 9.1 40 4.3 72 72 S 3 6 29.97 1015 10 16 N/A
3:55 am 03:55 Clear 48 8.8 39 4.1 73 73 S 6 9 30.00 1016 10 16 N/A
4:15 am 04:15 Clear 47 8.2 39 3.7 74 74 SSE 6 9 30.00 1016 10 16 N/A
4:35 am 04:35 Clear 47 8.1 39 4 76 76 SSE 5 7 30.00 1016 10 16 N/A
4:55 am 04:55 Clear 45 7.2 38 3.4 77 77 SSE 5 7 30.00 1016 10 16 N/A
5:15 am 05:15 Clear 44 6.8 38 3.2 78 78 SSE 5 7 30.00 1016 10 16 N/A
5:35 am 05:35 Clear 45 7.1 38 3.2 76 76 S 5 7 30.00 1016 10 16 N/A
5:55 am 05:55 Clear 45 7.3 37 3 74 74 S 3 6 30.00 1016 10 16 N/A
6:15 am 06:15 Clear 46 7.9 38 3.2 72 72 S 5 7 29.97 1015 10 16 N/A
6:35 am 06:35 Sunny 44 6.6 37 2.6 76 76 SSE 6 9 29.97 1015 10 16 N/A
6:55 am 06:55 Sunny 45 7.1 38 3.1 76 76 SSE 6 9 29.97 1015 10 16 N/A
7:15 am 07:15 Sunny 47 8.3 38 3.5 72 72 SSE 5 7 29.97 1015 10 16 N/A
7:35 am 07:35 Sunny 49 9.3 40 4.6 73 73 SSE 5 7 29.94 1014 10 16 N/A
7:55 am 07:55 Sunny 52 11.3 41 5 65 65 S 6 9 29.94 1014 10 16 N/A
8:15 am 08:15 Sunny 55 12.5 41 5.2 61 61 S 7 11 29.91 1013 10 16 N/A
8:35 am 08:35 Sunny 58 14.2 41 4.9 54 54 S 10 17 29.91 1013 10 16 N/A
8:55 am 08:55 Sunny 59 15.2 40 4.3 48 48 S 12 19 29.91 1013 10 16 N/A
9:15 am 09:15 Sunny 62 16.4 38 3.5 42 42 S 18 30 29.88 1012 10 16 N/A
9:35 am 09:35 Sunny 63 17.2 38 3.1 39 39 S 18 30 29.88 1012 10 16 N/A
9:55 am 09:55 Sunny 64 18 36 2.4 35 35 S 18 30 29.88 1012 10 16 N/A
10:15 am 10:15 Sunny 65 18.5 37 2.8 35 35 S 15 24 29.88 1012 10 16 N/A
10:35 am 10:35 Sunny 66 19 37 2.5 33 33 S 18 30 29.83 1010 10 16 N/A
10:55 am 10:55 Sunny 67 19.4 36 2.1 32 32 S 21 33 29.83 1010 10 16 N/A
11:15 am 11:15 Sunny 67 19.6 35 1.8 31 31 S 23 37 29.83 1010 10 16 N/A
11:35 am 11:35 Sunny 68 20 36 2.3 31 31 S 20 31 29.83 1010 10 16 N/A
11:55 am 11:55 Sunny 68 20.2 37 2.8 32 32 S 23 37 29.83 1010 10 16 N/A
12:15 pm 12:15 Sunny 69 20.4 37 2.5 31 31 S 24 39 29.80 1009 10 16 N/A
12:35 pm 12:35 Sunny 70 21 37 2.7 30 30 S 22 35 29.80 1009 10 16 N/A
12:55 pm 12:55 Sunny 71 21.6 36 2.2 28 28 SSE 20 31 29.74 1007 10 16 N/A
1:15 pm 13:15 Sunny 71 21.9 38 3.4 30 30 S 21 33 29.74 1007 10 16 N/A
1:35 pm 13:35 Sunny 72 22 38 3.2 29 29 S 20 31 29.71 1006 10 16 N/A
1:55 pm 13:55 Sunny 72 22.4 39 3.7 30 30 S 24 39 29.71 1006 10 16 N/A
2:15 pm 14:15 Sunny 73 22.8 39 3.9 29 29 S 20 31 29.71 1006 10 16 N/A
2:35 pm 14:35 Sunny 74 23.6 40 4.5 29 29 S 25 41 29.71 1006 10 16 N/A
2:55 pm 14:55 Sunny 74 23.5 41 5.1 30 30 S 23 37 29.68 1005 10 16 N/A
3:15 pm 15:15 Sunny 75 24 42 5.6 31 31 S 20 31 29.68 1005 10 16 N/A
3:35 pm 15:35 Sunny 75 23.9 42 5.6 31 31 S 29 46 29.68 1005 10 16 N/A
3:55 pm 15:55 Sunny 76 24.2 43 6.1 31 31 SSE 25 41 29.68 1005 10 16 N/A
4:15 pm 16:15 Sunny 76 24.4 44 6.7 32 32 S 22 35 29.68 1005 10 16 N/A
4:35 pm 16:35 Sunny 76 24.5 45 7 33 33 S 25 41 29.68 1005 10 16 N/A
4:55 pm 16:55 Sunny 76 24.5 45 7.2 33 33 S 28 44 29.68 1005 10 16 N/A
5:15 pm 17:15 Sunny 76 24.5 45 7.3 33 33 S 23 37 29.68 1005 10 16 N/A
5:35 pm 17:35 Sunny 76 24.5 46 7.5 34 34 S 24 39 29.62 1003 10 16 N/A
5:55 pm 17:55 Sunny 76 24.5 46 7.8 34 34 S 25 41 29.62 1003 10 16 N/A
6:15 pm 18:15 Sunny 76 24.5 46 7.9 35 35 S 24 39 29.62 1003 10 16 N/A
6:35 pm 18:35 Sunny 76 24.4 47 8.4 36 36 S 24 39 29.62 1003 10 16 N/A
6:55 pm 18:55 Sunny 75 24 47 8.2 37 37 S 21 33 29.65 1004 10 16 N/A
7:15 pm 19:15 Sunny 75 23.7 47 8.6 38 38 S 21 33 29.65 1004 10 16 N/A
7:35 pm 19:35 Sunny 73 23 47 8.6 40 40 S 23 37 29.65 1004 10 16 N/A
7:55 pm 19:55 Sunny 72 22.2 48 8.8 42 42 S 22 35 29.62 1003 10 16 N/A
8:15 pm 20:15 Sunny 71 21.8 48 9 44 44 SSE 20 31 29.62 1003 10 16 N/A
8:35 pm 20:35 Sunny 70 21.2 48 9 46 46 SSE 21 33 29.62 1003 10 16 N/A
8:55 pm 20:55 Clear 68 20 49 9.2 50 50 SSE 16 26 29.65 1004 10 16 N/A
9:15 pm 21:15 Clear 67 19.5 48 9.1 51 51 SSE 17 28 29.65 1004 10 16 N/A
9:35 pm 21:35 Clear 66 18.8 48 9 53 53 SSE 16 26 29.65 1004 10 16 N/A
9:55 pm 21:55 Clear 65 18.5 48 9 54 54 SSE 16 26 29.65 1004 10 16 N/A
10:15 pm 22:15 Clear 64 18 48 8.9 55 55 SSE 15 24 29.65 1004 10 16 N/A
10:35 pm 22:35 Clear 64 17.7 48 8.8 56 56 SSE 16 26 29.65 1004 10 16 N/A
10:55 pm 22:55 Clear 64 17.7 48 8.8 56 56 SSE 16 26 29.65 1004 10 16 N/A
11:15 pm 23:15 Clear 63 17.3 48 9 58 58 SSE 15 24 29.65 1004 10 16 N/A
11:35 pm 23:35 Clear 63 17.1 48 9.1 60 60 SSE 15 24 29.65 1004 10 16 N/A
11:55 pm 23:55 Clear 63 17.1 48 9.1 60 60 SSE 15 24 29.65 1004 10 16 N/A

Powered by AerisWeather